User: anonymous   Login
Location: Fort Wayne
(41.1310°N, 85.1290°W)
Time: 06:18:15
(UTC-05:00)
Language:

Cosmos 2227 Rocket - Orbit

View from above orbital plane
View from above orbital plane
View from above satellite
View from above satellite

Ground track
Ground track

The orbit data is extracted from the following two-line orbital elements,

1 22285U 92093B   17057.17779231  .00000282  00000-0  17037-3 0  9992
2 22285  71.0206  85.1512 0006291 286.7664  73.2768 14.15007292246833
Epoch (UTC): 26 February 2017 04:16:01
Eccentricity: 0.0006291
inclination: 71.0206°
perigee height: 838 km
apogee height: 847 km
right ascension of ascending node: 85.1512°
argument of perigee: 286.7664°
revolutions per day: 14.15007292
mean anomaly at epoch: 73.2768°
orbit number at epoch: 24683

The dashed part of the orbit path shows where the satellite is in the earth's shadow,  

DLR